Meadville, PA

11:30 AM EST on December 12, 2019 (GMT -0500)
Port Meadville

Weather History for KGKJ - October, 2019

Change the Weather History Date:

Tuesday, October 29, 2019

  Actual Average Record
Temperature  
Mean Temperature 56 °F -  
Max Temperature 64 °F 57 °F 75 °F (1989)
Min Temperature 48 °F 34 °F 18 °F (1965)
Degree Days  
Heating Degree Days 9    
Growing Degree Days 6 (Base 50)    
Moisture  
Dew Point 47 °F    
Average Humidity 72    
Maximum Humidity 86    
Minimum Humidity 60    
Precipitation  
Precipitation 0.00 in - - ()
Sea Level Pressure  
Sea Level Pressure 30.13 in    
Wind  
Wind Speed 3 mph ()    
Max Wind Speed 13 mph    
Max Gust Speed -    
Visibility 10.0 miles    
Events      
Averages and records for this station are not official NWS values.
T = Trace of Precipitation, MM = Missing Value Source: Averaged Metar Reports

Daily Weather History Graph

Daily Weather History Graph

Search for Another Location

Airport or City:

Astronomy

Oct. 29, 2019 Rise Set
Actual Time 7:48 AM EDT 6:19 PM EDT
Civil Twilight 7:20 AM EDT 6:48 PM EDT
Nautical Twilight 6:47 AM EDT 7:20 PM EDT
Astronomical Twilight 6:15 AM EDT 7:53 PM EDT
Moon 9:21 AM EDT (10/29) 7:41 PM EDT (10/29)
Length of Visible Light 11h 27m
Length of Day
10h 30m
Waxing Crescent, 3% of the Moon is Illuminated
Oct 29
Waxing Crescent
Nov 4
First Quarter
Nov 12
Full
Nov 19
Last Quarter
Nov 26
New

Hourly Weather History & Observations

Time (EDT) Temp. Dew Point Humidity Pressure Visibility Wind Dir Wind Speed Gust Speed Precip Events Conditions
12:53 AM 50.0 °F 41.0 °F 71% 30.08 in 10.0 mi Calm Calm - N/A   Clear
1:53 AM 48.9 °F 41.0 °F 74% 30.08 in 10.0 mi Calm Calm - N/A   Clear
2:53 AM 50.0 °F 41.0 °F 71% 30.06 in 10.0 mi Calm Calm - N/A   Clear
3:53 AM 50.0 °F 42.1 °F 74% 30.05 in 10.0 mi Calm Calm - N/A   Clear
4:53 AM 50.0 °F 42.1 °F 74% 30.06 in 10.0 mi Calm Calm - N/A   Clear
5:53 AM 50.0 °F 43.0 °F 77% 30.07 in 10.0 mi Variable 3.5 mph - N/A   Clear
6:53 AM 51.1 °F 43.0 °F 74% 30.09 in 10.0 mi Variable 4.6 mph - N/A   Partly Cloudy
7:53 AM 51.1 °F 44.1 °F 77% 30.10 in 10.0 mi South 4.6 mph - N/A   Scattered Clouds
8:53 AM 54.0 °F 46.0 °F 75% 30.12 in 10.0 mi SSE 6.9 mph - N/A   Mostly Cloudy
9:53 AM 55.9 °F 46.9 °F 72% 30.12 in 10.0 mi Variable 3.5 mph - N/A   Overcast
10:53 AM 57.9 °F 48.9 °F 72% 30.13 in 10.0 mi Variable 3.5 mph - N/A   Overcast
11:53 AM 63.0 °F 50.0 °F 63% 30.13 in 10.0 mi SSW 8.1 mph - N/A   Mostly Cloudy
12:53 PM 63.0 °F 50.0 °F 63% 30.13 in 10.0 mi SSW 5.8 mph - N/A   Overcast
1:53 PM 64.0 °F 50.0 °F 60% 30.13 in 10.0 mi West 12.7 mph - N/A   Mostly Cloudy
2:53 PM 62.1 °F 51.1 °F 67% 30.14 in 10.0 mi WSW 9.2 mph - N/A   Overcast
3:53 PM 63.0 °F 51.1 °F 65% 30.13 in 10.0 mi WSW 10.4 mph - N/A   Scattered Clouds
4:53 PM 61.0 °F 50.0 °F 67% 30.14 in 10.0 mi West 8.1 mph - N/A   Overcast
5:53 PM 60.1 °F 48.9 °F 67% 30.15 in 10.0 mi WSW 9.2 mph - N/A   Mostly Cloudy
6:53 PM 57.0 °F 48.9 °F 74% 30.18 in 10.0 mi West 8.1 mph - N/A   Mostly Cloudy
7:53 PM 57.0 °F 48.9 °F 74% 30.20 in 10.0 mi West 4.6 mph - N/A   Mostly Cloudy
8:53 PM 55.9 °F 48.9 °F 77% 30.21 in 10.0 mi West 8.1 mph - N/A   Overcast
9:53 PM 55.0 °F 46.9 °F 74% 30.23 in 10.0 mi WSW 6.9 mph - N/A   Overcast
10:53 PM 54.0 °F 46.9 °F 77% 30.23 in 10.0 mi Calm Calm - N/A   Overcast
11:53 PM 50.0 °F 46.0 °F 86% 30.22 in 10.0 mi SW 3.5 mph - N/A   Clear